This is the latest recevied weather packets stored in our database for station/object NC4J. If no packets are shown the sender has not sent any weather packets the latest 10 day(s).
| Time | Temp. | Humidity | Pressure | Rain* | Wind** | Luminosity | Snow |
|---|---|---|---|---|---|---|---|
| 1777695090 | 10.56° C | 76% | 1013.8 hPa | 0 mm | - | 0 W/m² | - |
| 1777694786 | 10.56° C | 74% | 1013.7 hPa | 0 mm | - | 0 W/m² | - |
| 1777694484 | 10.56° C | 76% | 1013.8 hPa | 0 mm | - | 0 W/m² | - |
| 1777694180 | 10.56° C | 74% | 1013.8 hPa | 0 mm | - | 0 W/m² | - |
| 1777693877 | 10.56° C | 75% | 1013.9 hPa | 0 mm | - | 0 W/m² | - |
| 1777693575 | 10.56° C | 74% | 1014 hPa | 0 mm | - | 0 W/m² | - |
| 1777693273 | 10.56° C | 75% | 1014 hPa | 0 mm | - | 0 W/m² | - |
| 1777692971 | 10.56° C | 71% | 1014 hPa | 0 mm | - | 0 W/m² | - |
| 1777692669 | 10.56° C | 71% | 1013.9 hPa | 0 mm | - | 0 W/m² | - |
| 1777692364 | 10.56° C | 72% | 1014 hPa | 0 mm | - | 0 W/m² | - |
| 1777692060 | 10.56° C | 75% | 1013.9 hPa | 0 mm | - | 0 W/m² | - |
| 1777691758 | 11.11° C | 74% | 1013.9 hPa | 0 mm | - | 0 W/m² | - |
| 1777691456 | 11.11° C | 76% | 1014 hPa | 0 mm | - | 0 W/m² | - |
| 1777691155 | 11.11° C | 76% | 1014.2 hPa | 0 mm | - | 0 W/m² | - |
| 1777690852 | 11.11° C | 73% | 1013.9 hPa | 0 mm | - | 0 W/m² | - |
| 1777690549 | 11.11° C | 75% | 1014.5 hPa | 0 mm | - | 0 W/m² | - |
| 1777690247 | 11.67° C | 75% | 1014.2 hPa | 0 mm | - | 0 W/m² | - |
| 1777689944 | 11.67° C | 75% | 1014.5 hPa | 0 mm | - | 0 W/m² | - |
| 1777689643 | 11.67° C | 76% | 1014.4 hPa | 0 mm | - | 0 W/m² | - |
| 1777689340 | 11.67° C | 76% | 1014.2 hPa | 0 mm | - | 0 W/m² | - |
| 1777689037 | 11.67° C | 76% | 1014.2 hPa | 0 mm | - | 0 W/m² | - |
| 1777688734 | 11.67° C | 75% | 1014.2 hPa | 0 mm | - | 0 W/m² | - |
| 1777688432 | 11.67° C | 75% | 1014.1 hPa | 0 mm | - | 0 W/m² | - |
| 1777688129 | 11.67° C | 77% | 1014.2 hPa | 0 mm | - | 0 W/m² | - |
| 1777687825 | 11.67° C | 77% | 1014.2 hPa | 0 mm | - | 0 W/m² | - |
* Rain latest hour (hover to see other rain measurements)
** Current wind speed in m/s (hover to see current wind gust speed)